Location: Coupvray
(48.8929°N, 2.7967°E)
Time: 23:49:32
(UTC+00:00)

Cosmos 724 - Pass Details

Date: 28 October 2020
Orbit: 851 x 943 km, 65.6° (Epoch: 28 November)

Event Time Altitude Azimuth Distance (km) Brightness Sun altitude
Exits shadow 03:22:04 16° 347° (NNW) 2,227 6.4 -31.2°
Maximum altitude 03:23:06 16° 359° (N) 2,196 6.5 -31.0°
Drops below altitude 10° 03:26:47 10° 36° (NE) 2,628 7.3 -30.4°
Sets 03:30:28 0° 57° (ENE) 3,587 8.5 -29.9°
